DW0275 Weather Reports


time (UTC)temp
C
wind
direction
speed
KPH
gust
KPH
rain 1hr
cm
rain 24hr
cm
rain mn
cm
humidity
%
barometer
mb
20260502152332 32 114 4.8 16.1 0.00 0.00 0.00 66 1012.8
20260502151822 32 117 4.8 16.1 0.00 0.00 0.00 67 1012.8
20260502151332 32 139 3.2 8.0 0.00 0.00 0.00 68 1013.0
20260502150824 32 154 3.2 9.7 0.00 0.00 0.00 69 1012.9
20260502150331 32 306 3.2 9.7 0.00 0.00 0.00 70 1012.8
20260502130331 28 140 4.8 12.9 0.00 0.00 0.00 80 1012.5
20260502123323 26 165 3.2 6.4 0.00 0.00 0.00 82 1012.6
20260502122909 26 110 1.6 6.4 0.00 0.00 0.00 82 1012.6
20260502122332 26 115 1.6 6.4 0.00 0.00 0.00 82 1012.6
20260502121834 26 146 1.6 4.8 0.00 0.00 0.00 82 1012.6
20260502121323 26 156 1.6 4.8 0.00 0.00 0.00 83 1012.5
20260502120826 26 197 1.6 4.8 0.00 0.00 0.00 83 1012.6
20260502120346 25 127 1.6 4.8 0.00 0.00 0.00 84 1012.6
20260502115827 25 126 1.6 3.2 0.00 0.00 0.00 85 1012.6
20260502115339 25 162 0.0 3.2 0.00 0.00 0.00 85 1012.6
20260502114829 24 172 0.0 0.0 0.00 0.00 0.00 86 1012.7
20260502114323 24 152 0.0 0.0 0.00 0.00 0.00 86 1012.8
20260502113836 23 168 0.0 0.0 0.00 0.00 0.00 86 1012.7
20260502113330 23 168 0.0 0.0 0.00 0.00 0.00 86 1012.8
20260502112824 23 168 0.0 1.6 0.00 0.00 0.00 87 1012.7
20260502112335 23 165 0.0 1.6 0.00 0.00 0.00 87 1012.7
20260502111825 23 134 0.0 1.6 0.00 0.00 0.00 87 1012.8
20260502111347 23 131 0.0 1.6 0.00 0.00 0.00 88 1012.9
20260502110838 23 161 0.0 3.2 0.00 0.00 0.00 88 1012.7
20260502110333 23 148 1.6 3.2 0.00 0.00 0.00 88 1012.7
20260502105827 23 131 0.0 1.6 0.00 0.00 0.00 88 1012.7
20260502105336 23 131 0.0 0.0 0.00 0.00 0.00 88 1012.7
20260502104847 22 131 0.0 0.0 0.00 0.00 0.00 88 1012.7
20260502104349 22 131 0.0 1.6 0.00 0.00 0.00 88 1012.7
20260502103822 22 131 0.0 1.6 0.00 0.00 0.00 88 1012.7
20260502103322 22 129 0.0 1.6 0.00 0.00 0.00 88 1012.5
20260502102832 22 169 0.0 1.6 0.00 0.00 0.00 88 1012.5
20260502102326 22 167 0.0 0.0 0.00 0.00 0.00 88 1012.5
20260502101837 22 162 0.0 1.6 0.00 0.00 0.00 87 1012.5
20260502101404 22 152 0.0 0.0 0.00 0.00 0.00 87 1012.5
20260502100836 22 134 0.0 0.0 0.00 0.00 0.00 87 1012.5
20260502100336 22 134 0.0 0.0 0.00 0.00 0.00 87 1012.6
20260502091336 22 352 0.0 0.0 0.00 0.00 0.00 87 1012.6
20260502090830 22 352 0.0 0.0 0.00 0.00 0.00 87 1012.6
20260502090323 22 352 0.0 0.0 0.00 0.00 0.00 87 1012.5
20260502071341 22 225 0.0 0.0 0.00 0.00 0.00 86 1012.6
20260502070830 22 225 0.0 0.0 0.00 0.00 0.00 85 1012.7
20260502070323 22 225 0.0 1.6 0.00 0.00 0.00 86 1012.7
20260502065824 22 225 0.0 1.6 0.00 0.00 0.00 86 1012.7
20260502065335 22 283 0.0 0.0 0.00 0.00 0.00 85 1012.7
20260502064851 22 283 0.0 0.0 0.00 0.00 0.00 85 1012.8
20260502064321 22 283 0.0 0.0 0.00 0.00 0.00 85 1012.9
20260502063831 22 283 0.0 0.0 0.00 0.00 0.00 85 1012.9
20260502063345 22 283 0.0 0.0 0.00 0.00 0.00 85 1012.8
20260502062838 22 283 0.0 0.0 0.00 0.00 0.00 85 1012.7
20260502062403 22 283 0.0 0.0 0.00 0.00 0.00 85 1012.7
20260502061824 22 283 0.0 0.0 0.00 0.00 0.00 85 1012.8
20260502061330 23 283 0.0 0.0 0.00 0.00 0.00 84 1012.9
20260502060821 23 283 0.0 0.0 0.00 0.00 0.00 84 1013.0
20260502060332 23 283 0.0 0.0 0.00 0.00 0.00 84 1013.1
20260502055845 23 283 0.0 0.0 0.00 0.00 0.00 83 1013.0
20260502055321 23 283 0.0 0.0 0.00 0.00 0.00 83 1013.0
20260502054849 23 283 0.0 0.0 0.00 0.00 0.00 83 1013.0
20260502054339 23 283 0.0 0.0 0.00 0.00 0.00 82 1013.1
20260502053831 23 283 0.0 0.0 0.00 0.00 0.00 82 1013.1
20260502053343 23 283 0.0 0.0 0.00 0.00 0.00 82 1013.2
20260502052830 23 283 0.0 1.6 0.00 0.00 0.00 82 1013.2
20260502052330 23 128 0.0 1.6 0.00 0.00 0.00 81 1013.3
20260502051821 24 120 0.0 1.6 0.00 0.00 0.00 81 1013.1
20260502051343 24 120 0.0 0.0 0.00 0.00 0.00 81 1013.2
20260502050825 24 117 0.0 1.6 0.00 0.00 0.00 81 1013.1
20260502050335 24 146 0.0 1.6 0.00 0.00 0.00 81 1013.1
20260502045828 24 146 0.0 1.6 0.00 0.00 0.00 80 1013.1
20260502045321 25 151 0.0 4.8 0.00 0.00 0.00 80 1013.1
20260502044830 25 146 0.0 4.8 0.00 0.00 0.00 80 1013.2
20260502044321 25 136 1.6 4.8 0.00 0.00 0.00 80 1013.1
20260502043858 25 135 0.0 6.4 0.00 0.00 0.00 80 1013.1
20260502043327 25 165 0.0 6.4 0.00 0.00 0.00 80 1013.2
20260502042820 25 150 1.6 6.4 0.00 0.00 0.00 80 1013.2
20260502042342 25 121 1.6 6.4 0.00 0.00 0.00 80 1013.2
20260502041837 25 144 0.0 8.0 0.00 0.00 0.00 80 1013.1
20260502041336 25 272 0.0 6.4 0.00 0.00 0.00 81 1013.2
20260502040826 25 154 1.6 6.4 0.00 0.00 0.00 82 1013.1
20260502040348 25 146 1.6 9.7 0.00 0.00 0.00 82 1013.1
20260502035833 26 172 3.2 9.7 0.00 0.00 0.00 82 1013.0
20260502035345 26 184 3.2 6.4 0.00 0.00 0.00 81 1013.2
20260502034854 26 159 1.6 8.0 0.00 0.00 0.00 81 1013.2
20260502034326 26 155 3.2 11.3 0.00 0.00 0.00 81 1013.2
20260502033839 26 162 3.2 11.3 0.00 0.00 0.00 81 1013.2
20260502033406 26 165 3.2 9.7 0.00 0.00 0.00 81 1013.2
20260502032839 26 154 0.0 9.7 0.00 0.00 0.00 80 1013.1
20260502032329 26 176 3.2 8.0 0.00 0.00 0.00 80 1013.1
20260502031907 26 145 4.8 8.0 0.00 0.00 0.00 80 1013.1
20260502031343 26 177 1.6 8.0 0.00 0.00 0.00 80 1013.0
20260502030835 26 153 3.2 8.0 0.00 0.00 0.00 80 1013.0
20260502030334 26 165 3.2 9.7 0.00 0.00 0.00 79 1013.0
20260502025829 26 143 3.2 9.7 0.00 0.00 0.00 79 1013.0
20260502025321 26 156 3.2 9.7 0.00 0.00 0.00 79 1013.0
20260502024836 26 161 3.2 6.4 0.00 0.00 0.00 79 1013.0
20260502024329 26 132 3.2 11.3 0.00 0.00 0.00 78 1013.0
20260502023822 26 130 1.6 11.3 0.00 0.00 0.00 78 1013.0
20260502023332 26 131 1.6 9.7 0.00 0.00 0.00 78 1012.9
20260502022846 26 128 3.2 9.7 0.00 0.00 0.00 78 1012.9
20260502022347 26 116 3.2 11.3 0.00 0.00 0.00 78 1012.9
20260502021830 26 143 3.2 11.3 0.00 0.00 0.00 78 1012.7
20260502021324 26 148 4.8 9.7 0.00 0.00 0.00 78 1012.7
20260502020835 26 124 3.2 9.7 0.00 0.00 0.00 78 1012.6
20260502020330 26 162 3.2 9.7 0.00 0.00 0.00 78 1012.5
20260502015906 26 152 4.8 9.7 0.00 0.00 0.00 78 1012.6
20260502015331 26 111 3.2 8.0 0.00 0.00 0.00 78 1012.6
20260502014826 26 152 3.2 9.7 0.00 0.00 0.00 78 1012.5
20260502014320 26 131 1.6 11.3 0.00 0.00 0.00 78 1012.5
20260502013827 26 150 4.8 11.3 0.00 0.00 0.00 78 1012.5
20260502013349 26 198 4.8 12.9 0.00 0.00 0.00 78 1012.5
20260502012838 26 140 4.8 12.9 0.00 0.00 0.00 78 1012.5
20260502012332 26 115 4.8 12.9 0.00 0.00 0.00 78 1012.4
20260502011833 26 124 4.8 11.3 0.00 0.00 0.00 78 1012.4
20260502011328 26 127 4.8 11.3 0.00 0.00 0.00 78 1012.3
20260502010823 26 198 6.4 12.9 0.00 0.00 0.00 78 1012.2
20260502010345 26 188 4.8 12.9 0.00 0.00 0.00 78 1012.2
20260502005819 26 127 4.8 11.3 0.00 0.00 0.00 78 1012.2
20260502005350 26 182 6.4 11.3 0.00 0.00 0.00 78 1012.2
20260502004822 26 123 4.8 12.9 0.00 0.00 0.00 78 1012.0
20260502004346 26 134 6.4 14.5 0.00 0.00 0.00 78 1012.0
20260502003829 27 127 4.8 14.5 0.00 0.00 0.00 78 1012.0
20260502003342 27 179 3.2 14.5 0.00 0.00 0.00 78 1011.9
20260502002832 27 150 6.4 17.7 0.00 0.00 0.00 78 1011.7
20260502002325 27 135 8.0 16.1 0.00 0.00 0.00 78 1011.8
20260502001837 27 139 6.4 22.5 0.00 0.00 0.00 78 1011.6
20260502001349 27 143 9.7 22.5 0.00 0.00 0.00 77 1011.5
20260502000822 27 137 6.4 14.5 0.00 0.00 0.00 77 1011.6
20260502000333 27 158 4.8 11.3 0.00 0.00 0.00 77 1011.4
20260501235823 27 139 4.8 16.1 0.00 0.00 0.00 77 1011.6
20260501235336 27 107 8.0 17.7 0.00 0.00 0.00 77 1011.3
20260501234827 27 154 8.0 17.7 0.00 0.00 0.00 76 1011.3
20260501234322 27 134 9.7 16.1 0.00 0.00 0.00 77 1011.2
20260501233833 27 148 8.0 16.1 0.00 0.00 0.00 76 1011.2
20260501233327 27 60 9.7 19.3 0.00 0.00 0.00 76 1011.3
20260501232819 27 135 9.7 19.3 0.00 0.00 0.00 75 1011.2
20260501232342 27 129 6.4 17.7 0.00 0.00 0.00 75 1011.2
20260501231827 28 140 6.4 17.7 0.00 0.00 0.00 75 1011.2
20260501231320 28 167 8.0 19.3 0.00 0.00 0.00 74 1011.2
20260501230832 28 139 4.8 19.3 0.00 0.00 0.00 74 1011.1
20260501230326 28 152 8.0 16.1 0.00 0.00 0.00 74 1011.0
20260501225822 28 138 8.0 16.1 0.00 0.00 0.00 73 1010.9
20260501225336 28 150 8.0 14.5 0.00 0.00 0.00 73 1010.9
20260501224828 28 145 9.7 17.7 0.00 0.00 0.00 73 1010.9
20260501224320 28 150 9.7 19.3 0.00 0.00 0.00 72 1010.9
20260501223829 28 130 9.7 19.3 0.00 0.00 0.00 72 1010.9
20260501223322 29 155 8.0 17.7 0.00 0.00 0.00 73 1010.9
20260501222845 28 101 9.7 17.7 0.00 0.00 0.00 73 1010.8
20260501222338 29 128 11.3 17.7 0.00 0.00 0.00 73 1010.9
20260501221822 29 124 8.0 19.3 0.00 0.00 0.00 73 1010.9
20260501221332 29 144 11.3 19.3 0.00 0.00 0.00 73 1010.9
20260501220825 29 130 9.7 19.3 0.00 0.00 0.00 72 1010.9
20260501220348 29 127 9.7 19.3 0.00 0.00 0.00 72 1010.8
20260501215324 30 145 8.0 17.7 0.00 0.00 0.00 72 1010.9
20260501214834 30 134 9.7 17.7 0.00 0.00 0.00 72 1010.9
20260501214326 30 110 11.3 16.1 0.00 0.00 0.00 70 1010.9
20260501213847 30 123 8.0 16.1 0.00 0.00 0.00 71 1010.9
20260501213327 30 120 11.3 16.1 0.00 0.00 0.00 69 1010.9
20260501212841 30 112 6.4 16.1 0.00 0.00 0.00 70 1010.9
20260501212329 30 129 8.0 14.5 0.00 0.00 0.00 69 1011.1
20260501211843 30 161 8.0 11.3 0.00 0.00 0.00 69 1011.0
20260501211359 31 143 6.4 12.9 0.00 0.00 0.00 67 1011.1
20260501210833 31 335 1.6 6.4 0.00 0.00 0.00 66 1011.1
20260501210320 31 182 1.6 9.7 0.00 0.00 0.00 66 1011.1
20260501205829 32 118 4.8 11.3 0.00 0.00 0.00 64 1011.1
20260501205322 32 106 1.6 9.7 0.00 0.00 0.00 51 1011.1
20260501204845 32 297 1.6 8.0 0.00 0.00 0.00 49 1011.1
20260501204329 32 134 3.2 8.0 0.00 0.00 0.00 48 1011.2
20260501203824 32 285 1.6 6.4 0.00 0.00 0.00 50 1011.2
20260501203333 32 41 1.6 6.4 0.00 0.00 0.00 49 1011.2
20260501202826 33 279 1.6 8.0 0.00 0.00 0.00 50 1011.2
20260501202319 32 143 3.2 8.0 0.00 0.00 0.00 52 1011.3
20260501201844 32 303 0.0 8.0 0.00 0.00 0.00 53 1011.3
20260501201357 32 139 4.8 9.7 0.00 0.00 0.00 55 1011.3
20260501200836 33 150 1.6 6.4 0.00 0.00 0.00 53 1011.4
20260501200330 32 310 0.0 3.2 0.00 0.00 0.00 53 1011.5
20260501195907 32 27 0.0 8.0 0.00 0.00 0.00 51 1011.7
20260501195337 33 283 1.6 8.0 0.00 0.00 0.00 53 1011.7
20260501194851 32 131 1.6 4.8 0.00 0.00 0.00 52 1011.8
20260501194336 32 146 3.2 11.3 0.00 0.00 0.00 51 1011.9
20260501193828 32 290 3.2 11.3 0.00 0.00 0.00 52 1012.0
20260501193402 32 135 1.6 9.7 0.00 0.00 0.00 53 1012.1
20260501192835 32 129 1.6 4.8 0.00 0.00 0.00 54 1012.1
20260501192328 32 224 0.0 6.4 0.00 0.00 0.00 55 1012.2
20260501191828 32 125 4.8 6.4 0.00 0.00 0.00 53 1012.3
20260501191320 33 333 1.6 4.8 0.00 0.00 0.00 53 1012.4
20260501190831 32 146 0.0 6.4 0.00 0.00 0.00 57 1012.4
20260501190343 32 6 3.2 6.4 0.00 0.00 0.00 55 1012.5
20260501185831 32 285 1.6 6.4 0.00 0.00 0.00 56 1012.5
20260501185326 32 271 1.6 8.0 0.00 0.00 0.00 57 1012.6
20260501184826 32 91 1.6 8.0 0.00 0.00 0.00 57 1012.6
20260501184341 32 19 1.6 8.0 0.00 0.00 0.00 55 1012.7
20260501183826 32 285 1.6 6.4 0.00 0.00 0.00 57 1012.8
20260501183340 32 105 3.2 6.4 0.00 0.00 0.00 56 1012.8
20260501182828 32 23 1.6 6.4 0.00 0.00 0.00 55 1012.9
20260501182319 32 114 1.6 6.4 0.00 0.00 0.00 57 1012.9
20260501181851 32 162 1.6 6.4 0.00 0.00 0.00 57 1013.0
20260501181346 32 292 1.6 8.0 0.00 0.00 0.00 57 1013.1
20260501180856 32 34 1.6 8.0 0.00 0.00 0.00 59 1013.0
20260501180326 32 331 1.6 4.8 0.00 0.00 0.00 58 1013.1
20260501175819 32 128 1.6 4.8 0.00 0.00 0.00 57 1013.0
20260501175330 32 319 1.6 4.8 0.00 0.00 0.00 58 1013.1
20260501174841 32 33 1.6 4.8 0.00 0.00 0.00 59 1013.1
20260501174321 32 147 1.6 6.4 0.00 0.00 0.00 60 1013.1
20260501173833 32 18 1.6 6.4 0.00 0.00 0.00 58 1013.2
20260501173326 32 282 1.6 6.4 0.00 0.00 0.00 59 1013.2
20260501172837 32 105 1.6 4.8 0.00 0.00 0.00 58 1013.2
20260501172329 31 107 1.6 3.2 0.00 0.00 0.00 58 1013.3
20260501171828 31 150 0.0 6.4 0.00 0.00 0.00 60 1013.2
20260501171322 31 129 1.6 6.4 0.00 0.00 0.00 59 1013.3
20260501170822 31 150 1.6 6.4 0.00 0.00 0.00 58 1013.3
20260501170337 31 98 1.6 6.4 0.00 0.00 0.00 62 1013.3
20260501165830 31 297 1.6 4.8 0.00 0.00 0.00 63 1013.5
20260501165325 31 127 1.6 4.8 0.00 0.00 0.00 59 1013.5
20260501164834 31 111 1.6 8.0 0.00 0.00 0.00 60 1013.5
20260501164328 31 126 3.2 8.0 0.00 0.00 0.00 60 1013.7
20260501163821 31 337 0.0 6.4 0.00 0.00 0.00 63 1013.7
20260501163342 31 328 3.2 8.0 0.00 0.00 0.00 61 1013.7
20260501162834 31 111 3.2 8.0 0.00 0.00 0.00 63 1013.7
20260501162326 31 311 0.0 9.7 0.00 0.00 0.00 62 1013.9
20260501161828 31 99 0.0 6.4 0.00 0.00 0.00 61 1014.0
20260501161321 31 121 3.2 6.4 0.00 0.00 0.00 62 1014.0
20260501160842 31 108 1.6 8.0 0.00 0.00 0.00 63 1014.0
20260501160334 30 347 1.6 8.0 0.00 0.00 0.00 64 1013.9
20260501155834 31 353 1.6 6.4 0.00 0.00 0.00 64 1014.0
20260501155328 30 297 1.6 6.4 0.00 0.00 0.00 66 1014.0
20260501154822 30 296 1.6 4.8 0.00 0.00 0.00 66 1014.0
20260501154346 30 9 0.0 6.4 0.00 0.00 0.00 65 1013.9
20260501153838 31 295 1.6 4.8 0.00 0.00 0.00 66 1013.9